Location: Eindhoven
(51.4416°N, 5.4697°E)
Time: 16:30:59
(UTC+01:00)

deb Explorer IX - Pass Details

Date: 23 November 2019
Orbit: 545 x 1105 km, 38.8° (Epoch: 08 December)

Event Time Altitude Azimuth Distance (km) Brightness Sun altitude
Rises 03:29:40 0° 256° (WSW) 3,665 - -42.4°
Reaches altitude 10° 03:33:06 10° 241° (WSW) 2,615 - -41.9°
Maximum altitude 03:37:32 21° 196° (SSW) 1,832 - -41.3°
Drops below altitude 10° 03:41:32 10° 149° (SSE) 2,323 - -40.7°
Exits shadow 03:44:04 - 134° (SE) 3,045 ? -40.3°
Sets 03:44:22 0° 133° (SE) 3,142 ? -40.3°
